Location: Albany
(35.0000°S, 118.0000°E)
Time: 12:57:38
(UTC-04:00)

ISS - All Passes

Search period start: 02 September 2015 00:00
Search period end: 12 September 2015 00:00
Orbit: 400 x 403 km, 51.6° (Epoch: 01 September)

Date Brightness Start Highest point End Pass type
(mag) Time Alt. Az. Time Alt. Az. Time Alt. Az.
02 Sep - 07:25:19 10° NW 07:28:35 89° NNE 07:31:55 10° SE visible
02 Sep - 09:03:52 10° SW 09:05:27 13° SSW 09:07:00 10° S night (unlit)
02 Sep - 13:55:50 10° SSW 13:58:37 24° SSE 14:01:25 10° E night (unlit)
02 Sep - 15:32:07 10° WSW 15:35:02 28° NW 15:37:55 10° NNE night (unlit)
03 Sep - 06:32:19 10° NNW 06:35:22 38° NE 06:38:29 10° ESE visible
03 Sep - 08:09:22 10° W 08:11:55 20° SSW 08:14:26 10° SSE visible
03 Sep - 13:03:08 10° S 13:05:06 15° SSE 13:07:08 10° ESE night (unlit)
03 Sep - 14:38:33 10° SW 14:41:51 66° NW 14:45:07 10° NE night (unlit)
04 Sep - 05:40:00 10° N 05:42:13 18° NE 05:44:33 10° E daylight
04 Sep - 07:15:24 10° WNW 07:18:28 35° SW 07:21:33 10° SSE visible
04 Sep - 13:45:18 10° SW 13:48:34 55° SE 13:51:49 10° ENE night (unlit)
04 Sep - 15:23:33 10° WNW 15:24:40 11° NW 15:25:39 10° NW night (unlit)
05 Sep - 06:21:51 10° NW 06:25:08 75° SW 06:28:27 10° SE visible
05 Sep - 08:00:51 10° SW 08:02:04 11° SSW 08:03:13 10° S visible
05 Sep - 12:52:16 10° SSW 12:55:11 28° SE 12:58:07 10° E night (unlit)
05 Sep - 14:28:48 10° WSW 14:31:33 24° NW 14:34:14 10° N night (unlit)
06 Sep - 05:28:44 10° NNW 05:31:53 46° NE 05:35:05 10° ESE daylight
06 Sep - 07:06:08 10° WSW 07:08:30 18° SSW 07:10:50 10° SSE visible
06 Sep - 11:59:29 10° SSW 12:01:42 17° SSE 12:03:58 10° ESE night (unlit)
06 Sep - 13:35:07 10° WSW 13:38:22 53° NW 13:41:35 10° NNE night (unlit)
07 Sep - 04:36:12 10° N 04:38:43 21° NE 04:41:19 10° ESE daylight
07 Sep - 06:12:04 10° W 06:15:01 30° SW 06:18:01 10° SSE visible
07 Sep - 11:07:16 10° S 11:08:07 11° SSE 11:09:03 10° SE night (unlit)
07 Sep - 12:41:48 10° SW 12:45:07 66° SE 12:48:24 10° NE night (unlit)
08 Sep - 05:18:25 10° WNW 05:21:40 62° SW 05:24:57 10° SE daylight
08 Sep - 06:58:03 10° SW 06:58:41 10° SSW 06:59:15 10° SSW visible
08 Sep - 11:48:44 10° SSW 11:51:46 32° SE 11:54:47 10° ENE night (unlit)
08 Sep - 13:25:31 10° W 13:28:03 20° NW 13:30:30 10° N night (unlit)
09 Sep - 04:25:12 10° NW 04:28:24 57° NE 04:31:40 10° SE daylight
09 Sep - 06:02:56 10° WSW 06:05:06 16° SSW 06:07:13 10° S daylight
09 Sep - 10:55:53 10° SSW 10:58:18 19° SSE 11:00:45 10° ESE night (unlit)
09 Sep - 12:31:43 10° WSW 12:34:53 43° NW 12:38:01 10° NNE night (unlit)
10 Sep - 03:32:30 10° N 03:35:14 25° NE 03:38:02 10° ESE daylight
10 Sep - 05:08:45 10° W 05:11:36 26° SW 05:14:28 10° SSE daylight
10 Sep - 10:03:25 10° S 10:04:45 12° SSE 10:06:07 10° SE night (unlit)
10 Sep - 11:38:19 10° SW 11:41:39 81° SE 11:44:57 10° NE night (unlit)
11 Sep - 02:40:53 10° NNE 02:42:06 12° NE 02:43:28 10° ENE daylight
11 Sep - 04:15:01 10° WNW 04:18:13 51° SW 04:21:28 10° SE daylight
11 Sep - 10:45:12 10° SSW 10:48:20 37° SE 10:51:27 10° ENE night (unlit)
11 Sep - 12:22:19 10° W 12:24:33 17° NW 12:26:41 10° N night (unlit)
